Tracking 19242 objects as of 15-Aug-2018
HD Live streaming from Space Station
objects crossing your sky now

COSMOS 1980

Track COSMOS 1980 now!
10-day predictions
COSMOS 1980 is classified as:


NORAD ID: 19649
Int'l Code: 1988-102A
Perigee: 847.0 km
Apogee: 854.0 km
Inclination: 71.0 °
Period: 101.8 minutes
Semi major axis: 7221 km
RCS: 11.2405 m2 (large)
Launch date: November 23, 1988
Source: Commonwealth of Independent States (former USSR) (CIS)
Launch site: TYURATAM MISSILE AND SPACE COMPLEX (TTMTR)
aabbcc
Your satellite tracking list
Your tracking list is empty




NASA's NSSDC Master Catalog

Two Line Element Set (TLE):
1 19649U 88102A   18226.53039820 -.00000135  00000-0 -45338-4 0  9995
2 19649  70.9991 257.2798 0004906   2.7368 357.3780 14.14690666534447
Source of the keplerian elements: AFSPC